SNORRE B OILP current weather conditions

sailwx.info

Wind from 300 at 30 knots

Air temperature 5.0° C
Visibility: greater than 5.4 NM
Dewpoint -1.0° C

Last reported at 2015-Mar-04 17:20 UTC.
Time now 2015-Mar-04 18:52 UTC

Location: N 61°32' E 002°13'.
View on Google Maps.

See reports from other nearby stations

  
Tides and Currents Weather Stations Pressure Air Temp Water Temp Dewpoint Dewpoint Depression Visibility Wind Speed Wind Dir Waves Ship Positions
date/time (UTC)wind fromknots sea level pressurealtimeterstation pressurevisibilityair tempwater tempwave heightnotes
2015-Mar-04 17:20 300 30 5.4 5.0
2015-Mar-04 16:50 290 27 5.4 5.0
2015-Mar-04 16:20 300 22 gusting 32 2.3 3.0 Light rain snow.
2015-Mar-04 15:50 270 17 5.4 4.0
2015-Mar-04 15:20 290 26 5.4 4.0
2015-Mar-04 14:50 280 22 5.4 5.0
2015-Mar-04 14:20 280 19 5.4 4.0 Light rain.
2015-Mar-04 13:50 280 16 5.4 4.0
2015-Mar-04 13:20 280 15 5.4 3.0 Light rain showers.
2015-Mar-04 12:50 290 23 5.4 4.0
2015-Mar-04 12:20 290 13 5.4 4.0 Light rain showers.
2015-Mar-04 11:50 300 25 5.4 4.0
2015-Mar-04 11:20 280 22 5.4 5.0
2015-Mar-04 10:50 300 22 5.4 5.0
2015-Mar-04 10:20 300 20 5.4 5.0
2015-Mar-04 09:50 310 7 5.4 5.0
2015-Mar-04 09:20 310 10 5.4 4.0
2015-Mar-04 08:50 280 17 5.4 4.0
2015-Mar-04 08:20 280 10 5.4 4.0
2015-Mar-04 07:50 310 9 5.4 3.0 Light rain.
2015-Mar-04 07:20 300 22 5.4 4.0 Light rain showers.
2015-Mar-04 06:50 230 11 5.4 4.0 Light rain showers.
2015-Mar-04 06:20 280 17 gusting 27 5.4 5.0
2015-Mar-04 05:50 270 11 5.4 5.0
2015-Mar-04 05:20 280 10 5.4 5.0
2015-Mar-04 04:50 280 8 5.4 5.0
2015-Mar-04 04:20 250 7 5.4 5.0
2015-Mar-04 03:50 260 5 5.4 5.0
2015-Mar-04 03:20 260 8 5.4 5.0
2015-Mar-04 02:50 230 6 5.4 5.0
2015-Mar-04 02:20 200 4 5.4 4.0
2015-Mar-04 01:50 240 17 5.4 4.0 Light drizzle.
2015-Mar-04 01:20 230 15 5.4 5.0
2015-Mar-04 00:50 220 10 5.4 5.0
2015-Mar-04 00:20 220 11 5.4 5.0
2015-Mar-03 23:50 220 9 5.4 5.0
2015-Mar-03 23:20 230 10 5.4 5.0
2015-Mar-03 22:50 210 11 5.4 5.0
2015-Mar-03 22:20 210 13 5.4 5.0
2015-Mar-03 21:50 160 9 5.4 5.0
2015-Mar-03 21:20 200 14 5.4 5.0
2015-Mar-03 20:50 230 12 5.4 5.0
2015-Mar-03 20:20 230 16 5.4 5.0
2015-Mar-03 19:50 230 17 5.4 5.0
2015-Mar-03 19:20 230 16 5.4 5.0
2015-Mar-03 18:50 240 14 5.4 4.0
2015-Mar-03 18:20 240 12 5.4 4.0 Light rain showers.
2015-Mar-03 17:50 250 15 5.4 5.0
2015-Mar-03 17:20 230 17 5.4 5.0 Light rain showers.
2015-Mar-03 16:50 220 20 5.4 4.0 Light rain showers.
2015-Mar-03 16:20 230 18 5.4 5.0 Light rain showers.
2015-Mar-03 15:50 230 8 5.4 3.0 Light rain showers.
2015-Mar-03 15:20 210 20 5.4 3.0 Light rain showers.
2015-Mar-03 14:50 200 14 5.4 4.0 Light rain showers.
2015-Mar-03 14:20 230 13 5.4 3.0 Light rain showers.
2015-Mar-03 13:50 260 19 5.4 4.0
2015-Mar-03 13:20 220 7 5.4 4.0 Light rain.
2015-Mar-03 12:50 260 5 5.4 3.0
2015-Mar-03 12:20 300 9 5.4 2.0
2015-Mar-03 11:50 300 16 5.4 2.0 Light rain showers.
2015-Mar-03 11:20 250 25 5.4 4.0
2015-Mar-03 10:50 230 20 5.4 5.0
2015-Mar-03 10:20 240 19 5.4 4.0
2015-Mar-03 09:50 230 20 5.4 4.0
2015-Mar-03 09:20 200 16 5.4 4.0
2015-Mar-03 08:50 210 19 5.4 4.0
2015-Mar-03 08:20 220 14 5.4 3.0
2015-Mar-03 07:50 250 9 5.4 3.0
2015-Mar-03 07:20 280 13 5.4 4.0 Light drizzle.
2015-Mar-03 06:50 260 13 5.4 4.0
2015-Mar-03 06:20 260 16 5.4 4.0
2015-Mar-03 05:50 250 15 5.4 3.0 Light rain showers.
2015-Mar-03 05:20 260 16 5.4 3.0
2015-Mar-03 04:50 240 22 5.4 4.0
2015-Mar-03 04:20 220 25 5.4 4.0 Light rain showers.
2015-Mar-03 03:50 240 20 5.4 5.0
2015-Mar-03 03:20 240 19 5.4 5.0
2015-Mar-03 02:50 250 20 5.4 5.0
2015-Mar-03 02:20 230 22 5.4 5.0
2015-Mar-03 01:50 240 20 5.4 5.0
2015-Mar-03 01:20 240 20 5.4 5.0
2015-Mar-03 00:50 230 11 5.4 4.0 Light rain showers.
2015-Mar-03 00:20 240 17 5.4 5.0
2015-Mar-02 23:50 250 18 5.4 5.0
2015-Mar-02 23:20 250 17 5.4 4.0
2015-Mar-02 22:50 250 23 5.4 3.0
2015-Mar-02 22:20 170 19 5.4 4.0
2015-Mar-02 21:50 170 18 5.4 4.0
2015-Mar-02 21:20 160 19 5.4 3.0
2015-Mar-02 20:50 160 16 5.4 3.0
2015-Mar-02 20:20 140 10 5.4 2.0
2015-Mar-02 19:50 160 7 5.4 2.0 Light rain.
2015-Mar-02 19:20 250 8 5.4 2.0 Light rain snow.
2015-Mar-02 18:50 150 10 5.4 2.0 Light rain showers.
2015-Mar-02 18:20 070 3 5.4 3.0 Light rain.